[Iaude] MPEC T83: 2016 TM17 [a=2.63,e=0.53,i=11.3,H=23.7]

mpec at si.edu mpec at si.edu
Sat Oct 8 16:23:56 EDT 2016


M.P.E.C. 2016-T83                                Issued 2016 Oct. 8, 20:20 UT
 
     The Minor Planet Electronic Circulars contain information on unusual
         minor planets and routine data on comets.  They are published
    on behalf of Division F of the International Astronomical Union by the
          Minor Planet Center, Smithsonian Astrophysical Observatory,
                          Cambridge, MA 02138, U.S.A.

             Prepared using the Tamkin Foundation Computer Network

                              MPC at CFA.HARVARD.EDU
            URL http://www.minorplanetcenter.net/    ISSN 1523-6714


                                   2016 TM17
 
Observations:
     K16T17M* C2016 10 06.46358 00 44 43.504+14 36 08.46         21.3 wLET083F51
     K16T17M  C2016 10 06.47657 00 44 45.600+14 35 37.29         21.5 wLET083F51
     K16T17M  C2016 10 06.48955 00 44 47.669+14 35 06.37         21.1 wLET083F51
     K16T17M  C2016 10 06.50261 00 44 49.759+14 34 35.32         21.2 wLET083F51
     K16T17M _C2016 10 07.44672300 47 34.883+13 57 07.01         21.8 RUET083568
     K16T17M _C2016 10 07.44879500 47 35.214+13 57 02.01         21.9 RUET083568
     K16T17M _C2016 10 07.45092200 47 35.554+13 56 56.87         22.0 RUET083568
     K16T17M KC2016 10 08.20680000 49 48.21 +13 26 16.3          21.4 VuET083H21
     K16T17M KC2016 10 08.21614300 49 49.70 +13 25 54.2          20.9 VuET083H21
     K16T17M KC2016 10 08.22921900 49 51.84 +13 25 21.9          20.9 VuET083H21
 
Observer details:
568 Mauna Kea.  Observers R. J. Wainscoat, L. Wells.  Measurers M. Micheli,
    R. J. Wainscoat.  3.6-m Canada-France-Hawaii Telescope + CCD.
F51 Pan-STARRS 1, Haleakala.  Observers B. Gibson, T. Goggia, S. Kahale,
    A. Schultz, M. Willman.  Measurers K. Chambers, S. Chastel, L. Denneau,
    H. Flewelling, M. Huber, E. Lilly, E. Magnier, R. Wainscoat, C. Waters,
    R. Weryk.  1.8-m Ritchey-Chretien + CCD.
H21 Astronomical Research Observatory, Westfield.  Observer R. Holmes.
    Measurers S. Foglia, L. Buzzi, T. Linder, R. Holmes.  0.76-m f/3.0
    astrograph + CCD.
 
Orbital elements:
2016 TM17                                                Earth MOID = 0.2334 AU
Epoch 2016 July 31.0 TT = JDT 2457600.5                 MPC
M 342.92638              (2000.0)            P               Q
n   0.23050822     Peri.  177.08648     +0.94158537     -0.32825450
a   2.6343801      Node   202.52933     +0.30487661     +0.92578671
e   0.5324752      Incl.   11.32969     +0.14306378     +0.18753119
P   4.28           H   23.7           G   0.15           U   8
Residuals in seconds of arc
161006 F51  0.2-  0.2+    161007 568  0.1+  0.1+    161008 H21  0.3-  0.3+
161006 F51  0.1+  0.1-    161007 568  0.1+  0.1+    161008 H21  0.0   0.2-
161006 F51  0.0   0.1-    161007 568  0.1+  0.1+
161006 F51  0.0   0.0     161008 H21  0.1+  0.3-

Ephemeris:
2016 TM17                a,e,i = 2.63, 0.53, 11                  q = 1.2316
Date    TT    R. A. (2000) Decl.     Delta      r     Elong.  Phase     V
2016 09 08    23 34 10.2 +25 14 01   0.3223  1.2930   148.4    24.1    22.9
...
2016 09 23    00 07 39.6 +21 48 19   0.2639  1.2523   158.2    17.3    22.2
...
2016 10 01    00 29 07.8 +17 57 25   0.2445  1.2392   165.2    11.9    21.8
...
2016 10 07    00 46 17.3 +14 15 02   0.2364  1.2335   171.2     7.2    21.5
2016 10 08    00 49 11.7 +13 34 57   0.2356  1.2330   172.2     6.3    21.5
2016 10 09    00 52 06.3 +12 54 14   0.2350  1.2325   173.2     5.5    21.5
...
2016 10 15    01 09 30.9 +08 42 28   0.2349  1.2318   177.2     2.3    21.3
...
2016 10 23    01 31 44.2 +03 15 44   0.2445  1.2367   170.6     7.6    21.6
...
2016 11 07    02 07 24.2 -04 16 49   0.2902  1.2632   157.0    17.9    22.5

A. U. Tomatic                (C) Copyright 2016 MPC           M.P.E.C. 2016-T83




More information about the Iaude mailing list